[[{"header":{"parameterUnit":"m.s-1","parameterCategory":1,"la1":30.2991,"la2":30.254,"lo1":-89.0895,"lo2":-89.0444,"dy":0.0017,"dx":0.0017,"nx":28,"ny":28,"refTime":"2024-04-24T09:00:00:Z","depth":0,"parameterNumber":2,"parameterNumberName":"U-component_of_WINDS"},"data":[0,0,0,0,0,0,0,0,0,0,0,0,0,0,0,0,0,0,0,0,0,0,0,0,0,0,0,0,0,0,0,0,0,0,0,0,0,0,0,0,0,0,0,0,0,0,0,0,0,0,0,0,0,0,0,0,0,0,0.6148,0.6147,0,0.6104,0.6104,0.6103,0.6081,0.6081,0.6081,0.6081,0.6035,0.6034,0.6033,0,0,0,0,0,0,0,0,0,0,0,0,0,0.6208,0.6207,0.6148,0.6147,0.6147,0.6104,0.6104,0.6103,0.6081,0.6081,0.6081,0.6081,0.6036,0.6034,0.6033,0,0,0,0,0,0,0,0,0,0,0,0,0,0.6175,0.6206,0.6148,0.6131,0.6129,0.6104,0.6104,0.6103,0.6081,0.6081,0.6081,0.6081,0.6036,0.6034,0.6033,0.6021,0,0,0.6027,0.6026,0,0,0,0,0,0,0,0,0.6177,0.6172,0.6134,0.6132,0.613,0.6098,0.6108,0.6075,0.6081,0.6099,0.6081,0.6081,0.6056,0.6053,0.6044,0.6019,0.6017,0.6027,0.6026,0.6025,0.6024,0,0,0,0,0,0,0,0.6179,0.6174,0.613,0.6133,0.6131,0.6124,0.6119,0.6102,0.6078,0.6098,0.6096,0.6091,0.6055,0.6046,0.6043,0.6017,0.6027,0.6025,0.6024,0.6023,0.5975,0.5974,0,0,0,0,0,0,0.6184,0.6176,0.6132,0.6129,0.6154,0.6123,0.6117,0.6108,0.6078,0.6074,0.6091,0.609,0.6049,0.6045,0.6042,0.6023,0.6025,0.6023,0.6022,0.5975,0.5975,0.5974,0,0,0,0,0,0,0.6186,0.6181,0.6133,0.6152,0.6146,0.6122,0.6111,0.6107,0.6099,0.6074,0.6069,0.6087,0.6049,0.6044,0.6025,0.6021,0.6022,0.6021,0.5975,0.5975,0.5975,0.5989,0,0,0,0,0,0,0.6188,0.6181,0.6178,0.6152,0.6145,0.612,0.6111,0.6107,0.6096,0.6094,0.6068,0.6064,0.6049,0.6028,0.6024,0.6019,0.6019,0.5975,0.5975,0.5975,0.5988,0.5989,0.5989,0,0,0,0,0,0.619,0.6184,0.6178,0.6173,0.614,0.612,0.6115,0.6098,0.6096,0.6091,0.6074,0.6065,0.6023,0.6027,0.6021,0.6016,0.5976,0.5975,0.5975,0.5988,0.5989,0.5989,0,0,0,0,0,0,0.6211,0.6181,0.6173,0.616,0.6142,0.6116,0.611,0.61,0.6083,0.6082,0.6061,0.6055,0.6038,0.6025,0.603,0.6001,0.5998,0.5996,0.601,0.601,0.6011,0.6014,0.6018,0,0,0,0,0,0.6214,0.62,0.6175,0.6165,0.6156,0.6135,0.6125,0.6113,0.6094,0.6087,0.6069,0.605,0.6031,0.602,0.6003,0.5986,0.5978,0.5979,0.598,0.598,0.5979,0.5965,0.5964,0.5973,0.5973,0.5973,0,0,0.622,0.6202,0.6195,0.6168,0.6154,0.6138,0.6129,0.6114,0.6102,0.6084,0.6065,0.6051,0.6028,0.6009,0.6,0.5998,0.5974,0.598,0.598,0.5979,0.5964,0.5964,0.5963,0.5973,0.5973,0.5973,0,0,0.6223,0.6209,0.6198,0.6182,0.6159,0.6144,0.6142,0.6116,0.6106,0.6086,0.6071,0.6055,0.6026,0.6009,0.5997,0.5989,0.5978,0.5984,0.5986,0.5972,0.5972,0.5971,0.5965,0.5964,0.5983,0.5983,0.5983,0,0.6233,0.6211,0.6193,0.6178,0.6165,0.6148,0.6135,0.6121,0.6093,0.6084,0.6082,0.6042,0.6025,0.6001,0.5998,0.599,0.5983,0.5987,0.5974,0.5972,0.5971,0.5966,0.5964,0.5983,0.5983,0.5983,0.5983,0,0.6223,0.6207,0.6201,0.6174,0.616,0.6147,0.6124,0.6113,0.6101,0.6086,0.6063,0.6043,0.6019,0.6012,0.6002,0.5984,0.5983,0.5978,0.5974,0.5972,0.5965,0.5963,0.5984,0.5984,0.5984,0.5984,0,0,0.6239,0.6201,0.6198,0.6184,0.6156,0.6143,0.6126,0.6103,0.6092,0.6072,0.6056,0.603,0.6023,0.6009,0.5996,0.5984,0.5975,0.5979,0.5978,0.5977,0.5951,0.5954,0.5952,0.5968,0.5967,0.5967,0.5952,0,0.6237,0.6208,0.619,0.6167,0.6151,0.6132,0.6117,0.6097,0.6081,0.6063,0.6045,0.6026,0.602,0.6011,0.5999,0.5979,0.5969,0.598,0.595,0.5949,0.5955,0.5949,0.5954,0.594,0.595,0.5949,0.5949,0,0.6231,0.6211,0.6186,0.6157,0.6149,0.6136,0.6111,0.6095,0.607,0.6059,0.6041,0.6027,0.6006,0.6004,0.5973,0.5981,0.5967,0.5955,0.5954,0.595,0.5948,0.5943,0.5936,0.5933,0.5946,0.5946,0.5946,0,0.6242,0.6209,0.6189,0.6178,0.6144,0.6134,0.6119,0.6095,0.608,0.6058,0.6047,0.6023,0.6009,0.5989,0.5967,0.5968,0.5937,0.5934,0.5925,0.5925,0.5919,0.5919,0.5908,0.5913,0.5913,0.5913,0.5913,0,0.624,0.6225,0.6193,0.6181,0.6163,0.6141,0.6123,0.6106,0.6083,0.6065,0.6048,0.6031,0.6004,0.5983,0.5966,0.5941,0.5935,0.5924,0.5919,0.5924,0.5925,0.5914,0.5914,0.5912,0.5913,0.5913,0.5913,0,0.625,0.6229,0.6205,0.6173,0.6165,0.6152,0.6124,0.611,0.6092,0.6069,0.6063,0.6034,0.6008,0.5984,0.595,0.5938,0.5912,0.5907,0.592,0.5917,0.5908,0.5909,0.5888,0.5883,0.5894,0.5894,0.5893,0,0.625,0.6238,0.6204,0.6191,0.6176,0.6156,0.614,0.6117,0.6101,0.607,0.6058,0.6031,0.6008,0.5967,0.5942,0.5914,0.5907,0.5902,0.5903,0.5907,0.5904,0.5904,0.5901,0.5902,0.5902,0.5902,0.5902,0,0.6251,0.624,0.6219,0.6193,0.6175,0.6154,0.6131,0.6121,0.6093,0.6076,0.6049,0.6031,0.5994,0.5966,0.5935,0.5917,0.5903,0.5901,0.5897,0.5902,0.5909,0.5902,0.5919,0.5902,0.5902,0.5902,0.5902,0.5902,0.6254,0.6241,0.6214,0.619,0.6171,0.6149,0.6134,0.6113,0.609,0.6059,0.6046,0.6017,0.5989,0.5945,0.5927,0.5903,0.59,0.5895,0.5893,0.5892,0.5892,0.5914,0.5897,0.5897,0.5897,0.5897,0.5897,0,0.6252,0.6233,0.6211,0.618,0.616,0.615,0.6123,0.6107,0.6082,0.6057,0.6034,0.6001,0.5972,0.5943,0.5913,0.5898,0.5891,0.5891,0.5891,0.5886,0.5897,0.5903,0.5897,0.5897,0.5897,0.5897,0.5897,0.5897,0.6248,0.6225,0.621,0.6175,0.6155,0.6128,0.6113,0.6092,0.6071,0.6035,0.6011,0.5993,0.5965,0.5931,0.5903,0.5895,0.5884,0.5885,0.5875,0.5886,0.5886,0.5886,0.5891,0.5883,0.5883,0.5865,0.5865,0.5865]},{"header":{"parameterUnit":"m.s-1","parameterCategory":1,"la1":30.2991,"la2":30.254,"lo1":-89.0895,"lo2":-89.0444,"dy":0.0017,"dx":0.0017,"nx":28,"ny":28,"refTime":"2024-04-24T09:00:00:Z","depth":0,"parameterNumber":3,"parameterNumberName":"V-component_of_WINDS"},"data":[0,0,0,0,0,0,0,0,0,0,0,0,0,0,0,0,0,0,0,0,0,0,0,0,0,0,0,0,0,0,0,0,0,0,0,0,0,0,0,0,0,0,0,0,0,0,0,0,0,0,0,0,0,0,0,0,0,0,1.1524,1.1522,0,1.1398,1.1397,1.1395,1.1292,1.1291,1.129,1.1289,1.1156,1.1153,1.1151,0,0,0,0,0,0,0,0,0,0,0,0,0,1.1667,1.1665,1.1524,1.1522,1.1521,1.1398,1.1397,1.1395,1.1292,1.1291,1.129,1.1289,1.1157,1.1154,1.115,0,0,0,0,0,0,0,0,0,0,0,0,0,1.158,1.1664,1.1524,1.1455,1.1447,1.1399,1.1397,1.1394,1.1293,1.1291,1.1289,1.1288,1.1158,1.1154,1.115,1.1159,0,0,1.1138,1.1137,0,0,0,0,0,0,0,0,1.1585,1.1574,1.1467,1.1459,1.1451,1.1359,1.1398,1.1315,1.1293,1.1351,1.1289,1.1287,1.1224,1.1215,1.1195,1.1152,1.1147,1.1138,1.1136,1.1134,1.1133,0,0,0,0,0,0,0,1.1591,1.1579,1.1474,1.1465,1.1456,1.1427,1.1413,1.1382,1.1298,1.1346,1.1338,1.1325,1.122,1.1199,1.1191,1.1145,1.1138,1.1135,1.1132,1.1131,1.1096,1.1097,0,0,0,0,0,0,1.1608,1.1585,1.1478,1.147,1.1515,1.1426,1.141,1.139,1.1298,1.1283,1.1327,1.1321,1.1206,1.1196,1.1186,1.1185,1.1134,1.1131,1.1128,1.1095,1.1096,1.1098,0,0,0,0,0,0,1.1612,1.16,1.1483,1.1525,1.1508,1.1426,1.1404,1.1389,1.1367,1.1284,1.1268,1.1321,1.1204,1.1191,1.1165,1.118,1.1129,1.1125,1.1093,1.1095,1.1097,1.1188,0,0,0,0,0,0,1.1617,1.1602,1.1606,1.1526,1.1507,1.1467,1.1405,1.1387,1.1362,1.1353,1.1274,1.1259,1.1202,1.1171,1.1161,1.1173,1.1122,1.1091,1.1094,1.1096,1.1183,1.1193,1.1201,0,0,0,0,0,1.1622,1.1637,1.1607,1.1595,1.1511,1.1468,1.1457,1.1392,1.1364,1.1365,1.1311,1.1262,1.118,1.117,1.1157,1.1169,1.109,1.1093,1.1096,1.1179,1.1191,1.1201,0,0,0,0,0,0,1.172,1.1625,1.1591,1.1581,1.1534,1.1451,1.1452,1.1407,1.1365,1.1359,1.1278,1.1261,1.1243,1.1203,1.1193,1.1169,1.1128,1.1129,1.1196,1.1206,1.1215,1.1224,1.1119,0,0,0,0,0,1.1741,1.1717,1.1634,1.1633,1.1611,1.1536,1.1515,1.1469,1.1416,1.1395,1.1338,1.1287,1.1248,1.1225,1.1186,1.1177,1.1156,1.1178,1.1187,1.1195,1.1196,1.1183,1.1191,1.1108,1.1108,1.1108,0,0,1.1783,1.1728,1.1717,1.1651,1.1609,1.1582,1.152,1.1495,1.1473,1.139,1.1361,1.1318,1.1255,1.1236,1.1225,1.1202,1.1214,1.1199,1.1206,1.1202,1.1187,1.1195,1.1202,1.111,1.111,1.1109,0,0,1.1845,1.1803,1.1796,1.1754,1.1691,1.164,1.1639,1.1562,1.153,1.15,1.1435,1.1407,1.1345,1.1301,1.1271,1.1313,1.1264,1.1302,1.1348,1.1336,1.1343,1.1348,1.1359,1.1364,1.1303,1.1304,1.1304,0,1.1905,1.1865,1.1797,1.1775,1.1746,1.167,1.166,1.1622,1.1549,1.1529,1.1505,1.1422,1.1375,1.1342,1.1352,1.1331,1.1323,1.131,1.1348,1.1352,1.1356,1.1365,1.137,1.1308,1.1308,1.1307,1.1307,0,1.1939,1.1912,1.1913,1.1844,1.1815,1.18,1.1726,1.1705,1.166,1.1611,1.1579,1.1518,1.1463,1.1453,1.141,1.1412,1.14,1.1363,1.132,1.137,1.1377,1.138,1.1315,1.1314,1.1312,1.1311,0,0,1.206,1.1953,1.1954,1.192,1.1843,1.1819,1.1798,1.1746,1.1726,1.1678,1.1655,1.1602,1.1566,1.1532,1.1482,1.1473,1.1504,1.1436,1.1433,1.1447,1.1497,1.1524,1.153,1.1472,1.1472,1.1473,1.1501,0,1.2108,1.2068,1.2005,1.1984,1.1955,1.1881,1.1861,1.181,1.1763,1.1729,1.1676,1.1638,1.1596,1.1574,1.1561,1.1503,1.1512,1.15,1.1446,1.1445,1.1462,1.1534,1.1563,1.1593,1.1504,1.1505,1.1505,0,1.2158,1.2114,1.2091,1.2012,1.1998,1.1982,1.1926,1.1896,1.1835,1.18,1.1761,1.1706,1.1675,1.1638,1.1592,1.1585,1.1559,1.1527,1.1526,1.1517,1.1477,1.1523,1.1602,1.1605,1.151,1.1509,1.1509,0,1.2245,1.2179,1.2155,1.2129,1.2038,1.2028,1.1989,1.1926,1.1897,1.1848,1.1827,1.1774,1.1745,1.1703,1.1634,1.1614,1.1594,1.1552,1.1561,1.1562,1.1559,1.1559,1.1631,1.1547,1.1547,1.1547,1.1546,0,1.2303,1.229,1.2192,1.2178,1.216,1.2086,1.2069,1.2023,1.1967,1.1939,1.1872,1.1846,1.1759,1.1721,1.1667,1.1634,1.1622,1.1591,1.1576,1.1595,1.1599,1.1575,1.157,1.1548,1.1547,1.1547,1.1547,0,1.2396,1.233,1.2299,1.2215,1.2193,1.2184,1.211,1.209,1.2039,1.2004,1.1991,1.1908,1.1861,1.1788,1.1719,1.1682,1.1657,1.1635,1.1679,1.1669,1.1681,1.1679,1.1738,1.174,1.1658,1.1659,1.1659,0,1.2436,1.2424,1.2339,1.2316,1.228,1.2245,1.2214,1.214,1.211,1.2037,1.2026,1.1973,1.1927,1.1854,1.1785,1.1731,1.1704,1.1728,1.1696,1.1714,1.17,1.1701,1.1697,1.1736,1.1737,1.1738,1.1739,0,1.2513,1.248,1.2441,1.2388,1.2354,1.2309,1.2261,1.2245,1.2159,1.2129,1.208,1.2044,1.1973,1.1919,1.1855,1.181,1.1759,1.175,1.1748,1.1767,1.1791,1.1774,1.1696,1.1749,1.1748,1.1747,1.1746,1.1746,1.2578,1.2563,1.25,1.2456,1.2412,1.2367,1.2344,1.2289,1.2248,1.2185,1.2143,1.2095,1.2029,1.1937,1.1895,1.1853,1.1832,1.1831,1.183,1.183,1.1835,1.18,1.1842,1.1841,1.1841,1.1841,1.184,0,1.2648,1.2604,1.2565,1.2499,1.2464,1.2421,1.2363,1.2336,1.2296,1.2239,1.2195,1.2136,1.2084,1.201,1.1951,1.1932,1.1906,1.1918,1.1918,1.1907,1.186,1.1866,1.194,1.194,1.194,1.194,1.194,1.194,1.2681,1.2652,1.2611,1.2558,1.2512,1.2467,1.2437,1.2394,1.2348,1.2286,1.2243,1.2196,1.2131,1.2066,1.2014,1.1993,1.1973,1.1992,1.1963,1.192,1.1911,1.1902,1.1907,1.1989,1.1989,1.2013,1.2013,1.2014]}]]